GW2861 Weather Reports


time (UTC)temp
C
wind
direction
speed
KPH
gust
KPH
rain 1hr
cm
rain 24hr
cm
rain mn
cm
humidity
%
barometer
mb
20260510180022 22 203 3.2 6.4 0.00 0.51 0.00 58
20260510175021 23 194 3.2 8.0 0.00 0.53 0.00 58
20260510174022 22 201 1.6 6.4 0.00 0.61 0.00 59
20260510173042 22 218 1.6 6.4 0.00 0.86 0.00 60
20260510172022 21 194 3.2 8.0 0.00 0.86 0.00 62
20260510171021 21 200 1.6 4.8 0.00 0.86 0.00 63
20260510170022 21 200 1.6 3.2 0.00 0.86 0.00 65
20260510165022 20 203 0.0 4.8 0.00 0.86 0.00 67
20260510164021 20 191 1.6 9.7 0.00 0.86 0.00 67
20260510163041 20 182 0.0 3.2 0.00 0.86 0.00 67
20260510162022 20 198 1.6 6.4 0.00 0.86 0.00 69
20260510161042 20 200 1.6 4.8 0.00 0.86 0.00 69
20260510160021 19 194 1.6 3.2 0.00 0.86 0.00 69
20260510155020 20 195 1.6 3.2 0.00 0.86 0.00 71
20260510154022 18 173 1.6 8.0 0.00 0.86 0.00 71
20260510153021 18 204 3.2 8.0 0.00 0.86 0.00 73
20260510152022 18 187 1.6 4.8 0.00 0.86 0.00 75
20260510151042 17 193 1.6 3.2 0.00 0.86 0.00 77
20260510150022 17 190 1.6 3.2 0.00 0.86 0.00 79
20260510145021 16 204 1.6 4.8 0.00 0.86 0.00 80
20260510144021 16 196 1.6 3.2 0.00 0.86 0.00 83
20260510143022 15 191 1.6 3.2 0.00 0.86 0.00 85
20260510142022 15 208 0.0 3.2 0.00 0.86 0.00 87
20260510141021 15 195 0.0 1.6 0.00 0.86 0.00 89
20260510140021 14 194 0.0 3.2 0.00 0.86 0.00 91
20260510135022 14 200 0.0 1.6 0.00 0.86 0.00 93
20260510134022 13 197 0.0 3.2 0.00 0.86 0.00 94
20260510133021 13 202 0.0 3.2 0.00 0.86 0.00 94
20260510132020 13 205 0.0 1.6 0.00 0.86 0.00 95
20260510131022 13 206 0.0 1.6 0.00 0.86 0.00 95
20260510130021 13 0.0 1.6 0.00 0.86 0.00 95
20260510125021 12 194 0.0 1.6 0.00 0.86 0.00 96
20260510124020 12 0.0 0.0 0.00 0.86 0.00 96
20260510123022 12 198 0.0 1.6 0.00 0.86 0.00 96
20260510122021 12 0.0 0.0 0.00 0.86 0.00 97
20260510121021 12 0.0 0.0 0.00 0.86 0.00 97
20260510120022 12 193 0.0 1.6 0.00 0.86 0.00 97
20260510115022 11 195 0.0 1.6 0.00 0.86 0.00 97
20260510114021 11 193 0.0 0.0 0.00 0.86 0.00 97
20260510113021 11 0.0 0.0 0.00 0.86 0.00 97
20260510112022 11 204 0.0 1.6 0.00 0.86 0.00 97
20260510111022 11 0.0 0.0 0.00 0.86 0.00 97
20260510110041 11 0.0 0.0 0.00 0.86 0.00 97
20260510105021 10 0.0 0.0 0.00 0.86 0.00 97
20260510104042 10 0.0 0.0 0.00 0.86 0.00 97
20260510103022 10 0.0 0.0 0.00 0.86 0.00 97
20260510102021 11 0.0 0.0 0.00 0.86 0.00 97
20260510101041 11 0.0 0.0 0.00 0.86 0.00 97
20260510100042 10 0.0 0.0 0.00 0.86 0.00 97
20260510095022 10 0.0 0.0 0.00 0.86 0.00 97
20260510094021 10 0.0 0.0 0.00 0.86 0.00 97
20260510093020 11 0.0 0.0 0.00 0.86 0.00 97
20260510092022 11 0.0 0.0 0.00 0.86 0.00 97
20260510091101 11 0.0 0.0 0.00 0.86 0.00 97
20260510090021 11 193 0.0 1.6 0.00 0.86 0.00 97
20260510085040 11 205 0.0 3.2 0.00 0.86 0.00 97
20260510084022 11 197 0.0 3.2 0.00 0.86 0.00 97
20260510083022 11 210 1.6 4.8 0.00 0.86 0.00 97
20260510082021 11 198 0.0 1.6 0.00 0.86 0.00 97
20260510081020 11 224 1.6 3.2 0.00 0.86 0.00 97
20260510080022 11 0.0 0.0 0.00 0.86 0.00 97
20260510075021 11 0.0 0.0 0.00 0.86 0.00 97
20260510074021 11 0.0 0.0 0.00 0.86 0.00 97
20260510073022 11 0.0 0.0 0.00 0.86 0.00 97
20260510072022 11 0.0 0.0 0.00 0.86 0.00 97
20260510071021 11 198 0.0 0.0 0.00 0.86 0.00 97
20260510070020 11 0.0 0.0 0.00 0.86 0.00 97
20260510065042 11 0.0 0.0 0.00 0.86 0.00 97
20260510064041 10 198 0.0 1.6 0.00 0.86 0.00 97
20260510063021 10 0.0 0.0 0.00 0.86 0.00 97
20260510062040 10 0.0 0.0 0.00 0.86 0.00 97
20260510061022 9 0.0 0.0 0.00 0.86 0.00 97
20260510060042 9 0.0 0.0 0.00 0.86 0.00 97
20260510055021 9 0.0 0.0 0.00 0.86 0.00 97
20260510054020 9 0.0 0.0 0.00 0.86 0.00 97
20260510053022 9 0.0 0.0 0.00 0.86 0.00 97
20260510052021 9 0.0 0.0 0.00 0.86 0.00 97
20260510051041 9 0.0 0.0 0.00 0.86 0.00 97
20260510050020 9 0.0 0.0 0.00 0.86 0.00 96
20260510045022 9 0.0 0.0 0.00 0.86 0.00 96
20260510044021 9 0.0 0.0 0.00 0.86 0.00 96
20260510043021 9 0.0 0.0 0.00 0.86 0.00 96
20260510042023 9 0.0 0.0 0.00 0.86 0.00 96
20260510041021 9 0.0 0.0 0.00 0.86 0.00 96
20260510040021 9 0.0 0.0 0.00 0.86 0.00 96
20260510035020 9 0.0 0.0 0.00 0.86 0.86 96
20260510034022 9 0.0 0.0 0.00 0.86 0.86 96
20260510033022 9 0.0 0.0 0.00 0.86 0.86 96
20260510032021 9 0.0 0.0 0.00 0.86 0.86 96
20260510031101 10 0.0 0.0 0.00 0.86 0.86 96
20260510030022 10 0.0 0.0 0.00 0.86 0.86 96
20260510025021 10 0.0 0.0 0.00 0.86 0.86 96
20260510024021 10 0.0 0.0 0.00 0.86 0.86 96
20260510023020 10 0.0 0.0 0.00 0.86 0.86 96
20260510022022 10 0.0 0.0 0.00 0.86 0.86 95
20260510021041 10 0.0 0.0 0.00 0.86 0.86 95
20260510020021 10 0.0 0.0 0.00 0.86 0.86 95
20260510015020 10 0.0 0.0 0.00 0.86 0.86 95
20260510014022 10 0.0 0.0 0.00 0.86 0.86 95
20260510013101 10 0.0 0.0 0.00 0.86 0.86 95
20260510012021 10 0.0 0.0 0.00 0.86 0.86 95
20260510011020 11 0.0 0.0 0.00 0.86 0.86 95
20260510010022 11 0.0 0.0 0.00 0.86 0.86 95
20260510005021 11 0.0 0.0 0.00 0.86 0.86 95
20260510004021 11 0.0 0.0 0.00 0.86 0.86 95
20260510003020 11 0.0 0.0 0.00 0.86 0.86 95
20260510002021 11 0.0 0.0 0.00 0.86 0.86 94
20260510001021 12 0.0 0.0 0.00 0.86 0.86 94
20260510000021 12 0.0 0.0 0.00 0.86 0.86 93
20260509235020 12 0.0 0.0 0.00 0.86 0.86 93
20260509234022 12 0.0 0.0 0.00 0.86 0.86 93
20260509233021 13 0.0 0.0 0.00 0.86 0.86 93
20260509232020 13 195 0.0 1.6 0.00 0.86 0.86 93
20260509231020 13 0.0 0.0 0.00 0.86 0.86 93
20260509230021 13 0.0 0.0 0.00 0.86 0.86 93
20260509225021 13 193 0.0 3.2 0.03 0.86 0.86 93
20260509224020 13 194 0.0 1.6 0.15 0.86 0.86 93
20260509223020 13 195 0.0 1.6 0.23 0.86 0.86 93
20260509222022 13 196 0.0 1.6 0.28 0.86 0.86 93
20260509221021 13 197 0.0 0.0 0.38 0.86 0.86 93
20260509220020 13 201 0.0 3.2 0.41 0.86 0.86 93
20260509215040 13 204 0.0 1.6 0.38 0.84 0.84 93
20260509214021 13 0.0 0.0 0.28 0.71 0.71 93
20260509213021 13 0.0 0.0 0.18 0.64 0.64 92
20260509212020 13 0.0 0.0 0.15 0.58 0.58 92
20260509211022 13 0.0 0.0 0.08 0.48 0.48 91
20260509210021 13 197 0.0 1.6 0.05 0.46 0.46 91
20260509205041 13 0.0 0.0 0.05 0.46 0.46 92
20260509204020 13 0.0 0.0 0.03 0.43 0.43 91
20260509203041 13 0.0 0.0 0.05 0.43 0.43 90
20260509202021 13 191 0.0 1.6 0.03 0.43 0.43 89
20260509201021 13 190 0.0 1.6 0.03 0.43 0.43 87
20260509200020 13 196 1.6 8.0 0.03 0.43 0.43 86
20260509195022 13 206 3.2 8.0 0.03 0.43 0.43 87
20260509194021 13 198 0.0 3.2 0.05 0.43 0.43 87
20260509193040 14 199 0.0 1.6 0.03 0.41 0.41 89
20260509192020 14 199 0.0 1.6 0.05 0.41 0.41 89
20260509191021 14 198 0.0 1.6 0.05 0.41 0.41 90
20260509190021 14 0.0 0.0 0.05 0.41 0.41 89
20260509185020 14 0.0 0.0 0.08 0.41 0.41 88
20260509184020 14 195 0.0 6.4 0.13 0.38 0.38 87
20260509183021 14 216 1.6 3.2 0.38 0.38 0.38 87
20260509182021 14 209 1.6 8.0 0.36 0.36 0.36 86
20260509181020 14 201 1.6 4.8 0.36 0.36 0.36 88